sat.trackr.live / text

‹ back to catalog

CARTOSAT-2C

NORAD 41599 · 2016-040A

PAYLOAD ACTIVE UNKNOWN

§ Identity

Operator
Country
IND
Launch date
2016-06-22
Launch site
SRILR
Launch vehicle
Mass (kg)
RCS (m²)
2.00

Purposes: earth_obs

External: N2YO · Heavens-Above · Gunter

§ Orbital elements

Epoch: 2026-09-20T04:02:16.350720Z

Period
94.78 min
Inclination
97.4386°
Eccentricity
0.0009590
Mean motion
15.19292327 rev/d
Perigee alt
501.4 km
Apogee alt
514.6 km
Semi-major
6,886.1 km
B*
1.1441e-4
RAAN
321.7854°
Arg perigee
155.1010°
Mean anomaly
205.0689°
Rev number
56,813

§ Raw data

CARTOSAT-2C1 41599U 16040A   26263.16824480  .00002348  00000+0  11441-3 0  99912 41599  97.4386 321.7854 0009590 155.1010 205.0689 15.19292327568137

JSON: /api/v1/satellites/41599 · /tle

For live sub-satellite position, see the globe view (requires WebGL).

§ Visibility from observer

Set your observer location to see the next 7 days of passes ≥ 10°. The values pass through the URL so the page stays shareable.

No JS? Fill the form by hand. The geolocation button needs JavaScript.

§ Radio — SatNOGS DB

ModeDescriptionDownlinkUplink
CW Beacon 2.246 GHz

1 transmitter · refreshed weekly from db.satnogs.org